CFG117 EDXW-EDDC

Flight info

Callsign CFG117
Flight time 0h 55m
Altitude 23000
Route OLDIP1B OLDIP DCT PIZID/N0451F390 DCT EKERN M852 AMLUH L619 PITEN Z998 OSKAN OSKAN4A
Aircraft A20N/M-SDE2E3FGHIRWXY/LB1

Departure

Time 2026-04-22 16:21
Airport Westerland Sylt Airport (EDXW)

Arrival

Time 2026-04-22 17:16
Airport Dresden Airport (EDDC)
Time Latitude Longitude Altitude Speed Heading
2026-04-22 16:04 54.91352 8.33116 40 ft 0 kts 271°
2026-04-22 16:16 54.91352 8.33136 40 ft 5 kts 268°
2026-04-22 16:16 54.91361 8.33209 38 ft 5 kts 229°
2026-04-22 16:17 54.91380 8.33237 40 ft 2 kts 171°
2026-04-22 16:17 54.91387 8.33235 40 ft 1 kts 171°
2026-04-22 16:17 54.91383 8.33236 40 ft 0 kts 171°
2026-04-22 16:18 54.91362 8.33241 40 ft 11 kts 176°
2026-04-22 16:18 54.91284 8.33195 38 ft 15 kts 203°
2026-04-22 16:18 54.91159 8.33181 39 ft 25 kts 180°
2026-04-22 16:19 54.90961 8.33104 39 ft 30 kts 194°
2026-04-22 16:19 54.90782 8.33218 39 ft 28 kts 171°
2026-04-22 16:19 54.90573 8.33247 39 ft 35 kts 174°
2026-04-22 16:19 54.90332 8.33471 39 ft 45 kts 127°
2026-04-22 16:20 54.90239 8.34027 40 ft 51 kts 94°
2026-04-22 16:20 54.90283 8.34583 40 ft 43 kts 81°
2026-04-22 16:20 54.90319 8.34950 40 ft 18 kts 79°
2026-04-22 16:20 54.90357 8.35114 40 ft 12 kts 54°
2026-04-22 16:21 54.90404 8.35165 41 ft 5 kts
2026-04-22 16:21 54.90542 8.35019 41 ft 63 kts 325°
2026-04-22 16:21 54.91159 8.34225 45 ft 157 kts 323°
2026-04-22 16:21 54.92192 8.32868 735 ft 204 kts 323°
2026-04-22 16:22 54.94403 8.29642 3115 ft 223 kts 328°
2026-04-22 16:22 54.95827 8.28060 3462 ft 251 kts 329°
2026-04-22 16:22 54.97292 8.26377 3772 ft 253 kts 322°
2026-04-22 16:23 54.98036 8.20678 3995 ft 268 kts 246°
2026-04-22 16:23 54.97025 8.17928 4051 ft 271 kts 235°
2026-04-22 16:23 54.95857 8.15363 4598 ft 273 kts 231°
2026-04-22 16:24 54.94337 8.13421 5740 ft 277 kts 197°
2026-04-22 16:24 54.90742 8.14931 8321 ft 279 kts 142°
2026-04-22 16:24 54.89181 8.16958 9148 ft 287 kts 139°
2026-04-22 16:25 54.87628 8.19176 9549 ft 288 kts 137°
2026-04-22 16:25 54.84536 8.23742 9937 ft 297 kts 138°
2026-04-22 16:25 54.82738 8.26128 10184 ft 340 kts 141°
2026-04-22 16:26 54.80765 8.28551 11129 ft 355 kts 143°
2026-04-22 16:26 54.78671 8.30994 12077 ft 372 kts 144°
2026-04-22 16:26 54.76449 8.33502 12489 ft 384 kts 145°
2026-04-22 16:26 54.74195 8.35974 12877 ft 384 kts 146°
2026-04-22 16:27 54.71917 8.38430 13733 ft 385 kts 144°
2026-04-22 16:27 54.69995 8.41587 14785 ft 383 kts 124°
2026-04-22 16:27 54.68518 8.45405 15829 ft 386 kts 118°
2026-04-22 16:27 54.67200 8.49477 16862 ft 389 kts 115°
2026-04-22 16:28 54.65979 8.53689 17376 ft 394 kts 113°
2026-04-22 16:28 54.64827 8.57999 17861 ft 395 kts 111°
2026-04-22 16:28 54.63738 8.62309 18629 ft 399 kts 110°
2026-04-22 16:28 54.62777 8.66890 19042 ft 410 kts 104°
2026-04-22 16:29 54.62094 8.71766 19622 ft 416 kts 100°
2026-04-22 16:29 54.61530 8.76639 20313 ft 422 kts 99°
2026-04-22 16:29 54.61000 8.81694 20811 ft 432 kts 98°
2026-04-22 16:29 54.60492 8.86837 21619 ft 436 kts 98°
2026-04-22 16:30 54.60165 8.90240 22161 ft 438 kts 97°
2026-04-22 16:30 54.59502 8.97206 22697 ft 440 kts 97°
2026-04-22 16:30 54.59005 9.02444 22861 ft 445 kts 97°
2026-04-22 16:30 54.58503 9.07718 22919 ft 444 kts 97°
2026-04-22 16:31 54.57998 9.12962 22944 ft 443 kts 98°
2026-04-22 16:31 54.57492 9.18195 22944 ft 443 kts 98°
2026-04-22 16:31 54.56985 9.23435 22952 ft 443 kts 98°
2026-04-22 16:31 54.56476 9.28676 22955 ft 442 kts 98°
2026-04-22 16:32 54.55961 9.33904 22943 ft 442 kts 98°
2026-04-22 16:32 54.55371 9.39109 22923 ft 442 kts 99°
2026-04-22 16:32 54.54754 9.44307 22903 ft 443 kts 99°
2026-04-22 16:32 54.54141 9.49502 22883 ft 442 kts 99°
2026-04-22 16:33 54.53550 9.54691 22853 ft 441 kts 99°
2026-04-22 16:33 54.52974 9.59871 22830 ft 441 kts 99°
2026-04-22 16:33 54.52419 9.65068 22788 ft 441 kts 98°
2026-04-22 16:33 54.51920 9.70271 22774 ft 440 kts 97°
2026-04-22 16:34 54.51470 9.75461 22886 ft 437 kts 97°
2026-04-22 16:34 54.50987 9.80659 23007 ft 442 kts 100°
2026-04-22 16:34 54.50024 9.85712 23077 ft 447 kts 112°
2026-04-22 16:34 54.48362 9.90217 23044 ft 453 kts 127°
2026-04-22 16:35 54.45913 9.93688 22984 ft 461 kts 146°
2026-04-22 16:35 54.42874 9.95569 22967 ft 470 kts 166°
2026-04-22 16:35 54.39611 9.96185 22961 ft 474 kts 172°
2026-04-22 16:35 54.36308 9.96582 22962 ft 475 kts 172°
2026-04-22 16:36 54.33020 9.97013 22961 ft 473 kts 171°
2026-04-22 16:36 54.29739 9.97552 22953 ft 473 kts 170°
2026-04-22 16:36 54.26468 9.98224 22958 ft 473 kts 168°
2026-04-22 16:36 54.23214 9.99029 22953 ft 472 kts 167°
2026-04-22 16:37 54.19981 9.99951 22950 ft 470 kts 166°
2026-04-22 16:37 54.16764 10.00966 22950 ft 470 kts 165°
2026-04-22 16:37 54.13564 10.02099 22949 ft 470 kts 163°
2026-04-22 16:37 54.10366 10.03385 22949 ft 469 kts 162°
2026-04-22 16:38 54.07223 10.04715 22941 ft 468 kts 162°
2026-04-22 16:38 54.04065 10.06078 22934 ft 468 kts 162°
2026-04-22 16:38 54.00903 10.07440 22941 ft 468 kts 162°
2026-04-22 16:38 53.97739 10.08794 22939 ft 468 kts 162°
2026-04-22 16:39 53.94587 10.10128 22936 ft 468 kts 162°
2026-04-22 16:39 53.91393 10.11468 22942 ft 480 kts 162°
2026-04-22 16:39 53.88118 10.12832 22951 ft 484 kts 162°
2026-04-22 16:39 53.84853 10.14171 23135 ft 482 kts 162°
2026-04-22 16:40 53.81570 10.15498 23731 ft 484 kts 162°
2026-04-22 16:40 53.78296 10.16807 24354 ft 487 kts 162°
2026-04-22 16:40 53.71634 10.19436 25481 ft 494 kts 162°
2026-04-22 16:41 53.68304 10.20853 26041 ft 490 kts 161°
2026-04-22 16:41 53.65106 10.22266 26186 ft 476 kts 160°
2026-04-22 16:41 53.61873 10.23743 26446 ft 486 kts 160°
2026-04-22 16:41 53.58638 10.25232 27249 ft 471 kts 160°
2026-04-22 16:42 53.55477 10.26677 28040 ft 470 kts 160°
2026-04-22 16:42 53.52346 10.28125 28923 ft 461 kts 158°
2026-04-22 16:42 53.49369 10.29861 29970 ft 446 kts 152°
2026-04-22 16:42 53.47511 10.31298 30685 ft 438 kts 148°
2026-04-22 16:43 53.44873 10.33729 31545 ft 430 kts 143°
2026-04-22 16:43 53.42469 10.36639 32201 ft 423 kts 134°
2026-04-22 16:43 53.40445 10.40164 32979 ft 415 kts 124°
2026-04-22 16:43 53.38865 10.44151 33804 ft 407 kts 118°
2026-04-22 16:44 53.37382 10.48153 34576 ft 401 kts 118°
2026-04-22 16:44 53.35925 10.52099 35255 ft 395 kts 118°
2026-04-22 16:44 53.34491 10.55990 35889 ft 392 kts 118°
2026-04-22 16:44 53.33089 10.59899 36403 ft 390 kts 116°
2026-04-22 16:45 53.31760 10.63885 36563 ft 398 kts 115°
2026-04-22 16:45 53.30433 10.68057 36430 ft 414 kts 115°
2026-04-22 16:45 53.29086 10.72382 36504 ft 424 kts 114°
2026-04-22 16:45 53.27726 10.76791 36675 ft 431 kts 115°
2026-04-22 16:46 53.26350 10.81210 37012 ft 436 kts 115°
2026-04-22 16:46 53.24885 10.85920 37469 ft 438 kts 115°
2026-04-22 16:46 53.23540 10.90248 37930 ft 440 kts 115°
2026-04-22 16:46 53.22126 10.94787 38425 ft 441 kts 115°
2026-04-22 16:47 53.20689 10.99391 38939 ft 442 kts 115°
2026-04-22 16:47 53.19254 11.03998 38556 ft 461 kts 115°
2026-04-22 16:47 53.17751 11.08830 37645 ft 468 kts 115°
2026-04-22 16:47 53.16251 11.13601 36768 ft 461 kts 115°
2026-04-22 16:48 53.14776 11.18289 36073 ft 451 kts 115°
2026-04-22 16:48 53.13325 11.22875 35464 ft 440 kts 115°
2026-04-22 16:48 53.11910 11.27328 34874 ft 429 kts 115°
2026-04-22 16:48 53.10514 11.31619 34288 ft 418 kts 116°
2026-04-22 16:49 53.09106 11.35725 33610 ft 409 kts 116°
2026-04-22 16:49 53.07623 11.39776 32939 ft 400 kts 118°
2026-04-22 16:49 53.06149 11.43634 32403 ft 390 kts 118°
2026-04-22 16:49 53.04739 11.47424 32999 ft 388 kts 116°
2026-04-22 16:50 53.03444 11.51346 33735 ft 383 kts 112°
2026-04-22 16:50 53.02416 11.55381 34451 ft 376 kts 105°
2026-04-22 16:50 53.01812 11.59548 35098 ft 368 kts 95°
2026-04-22 16:50 53.01539 11.63739 35775 ft 360 kts 92°
2026-04-22 16:51 53.01367 11.67849 36444 ft 354 kts 100°
2026-04-22 16:51 53.00644 11.71739 36971 ft 355 kts 111°
2026-04-22 16:51 52.99522 11.75422 37246 ft 359 kts 114°
2026-04-22 16:51 52.98356 11.79093 37579 ft 361 kts 114°
2026-04-22 16:52 52.97179 11.82797 37872 ft 363 kts 114°
2026-04-22 16:52 52.96009 11.86515 38227 ft 364 kts 115°
2026-04-22 16:52 52.94709 11.90113 38644 ft 364 kts 123°
2026-04-22 16:52 52.93165 11.93382 38884 ft 368 kts 128°
2026-04-22 16:53 52.91475 11.96716 38722 ft 382 kts 127°
2026-04-22 16:53 52.89747 12.00178 38518 ft 397 kts 126°
2026-04-22 16:53 52.88029 12.03823 38599 ft 404 kts 124°
2026-04-22 16:54 52.84627 12.11434 38795 ft 419 kts 123°
2026-04-22 16:54 52.82904 12.15369 38940 ft 425 kts 123°
2026-04-22 16:54 52.81098 12.19291 39082 ft 432 kts 125°
2026-04-22 16:54 52.79219 12.23275 38961 ft 445 kts 125°
2026-04-22 16:55 52.77292 12.27358 38874 ft 457 kts 125°
2026-04-22 16:55 52.73325 12.35873 38811 ft 477 kts 124°
2026-04-22 16:55 52.71356 12.40196 38792 ft 460 kts 124°
2026-04-22 16:56 52.69322 12.44376 38837 ft 468 kts 136°
2026-04-22 16:56 52.66559 12.47301 38765 ft 478 kts 152°
2026-04-22 16:56 52.63475 12.49649 38602 ft 487 kts 150°
2026-04-22 16:56 52.60508 12.52404 38416 ft 490 kts 146°
2026-04-22 16:57 52.57618 12.55374 38143 ft 487 kts 146°
2026-04-22 16:57 52.54755 12.58186 37790 ft 472 kts 147°
2026-04-22 16:57 52.51929 12.60762 37340 ft 458 kts 148°
2026-04-22 16:57 52.49228 12.63276 36771 ft 448 kts 147°
2026-04-22 16:58 52.47409 12.64973 36375 ft 443 kts 147°
2026-04-22 16:58 52.43867 12.68243 35700 ft 430 kts 146°
2026-04-22 16:58 52.41340 12.70670 35291 ft 419 kts 144°
2026-04-22 16:58 52.38817 12.73060 34872 ft 411 kts 145°
2026-04-22 16:59 52.36307 12.75382 34459 ft 407 kts 145°
2026-04-22 16:59 52.33809 12.77679 33612 ft 415 kts 145°
2026-04-22 16:59 52.31248 12.80052 32702 ft 423 kts 144°
2026-04-22 16:59 52.28717 12.82525 31844 ft 428 kts 142°
2026-04-22 17:00 52.26196 12.85151 31045 ft 431 kts 141°
2026-04-22 17:00 52.18701 12.93009 30989 ft 425 kts 144°
2026-04-22 17:01 52.13508 12.97568 30973 ft 424 kts 148°
2026-04-22 17:01 52.10854 12.99617 30699 ft 424 kts 149°
2026-04-22 17:01 52.08159 13.01720 29550 ft 429 kts 148°
2026-04-22 17:02 52.05473 13.03840 28434 ft 428 kts 148°
2026-04-22 17:02 52.02803 13.05952 27387 ft 426 kts 148°
2026-04-22 17:02 52.00157 13.08042 26413 ft 422 kts 148°
2026-04-22 17:02 51.97530 13.10110 25491 ft 416 kts 149°
2026-04-22 17:03 51.94931 13.12151 24619 ft 414 kts 149°
2026-04-22 17:03 51.92233 13.14287 23783 ft 447 kts 149°
2026-04-22 17:03 51.89365 13.16594 22836 ft 462 kts 148°
2026-04-22 17:03 51.86645 13.19078 22243 ft 445 kts 144°
2026-04-22 17:04 51.84084 13.21771 21649 ft 433 kts 142°
2026-04-22 17:04 51.81605 13.24422 21152 ft 422 kts 142°
2026-04-22 17:04 51.79185 13.26991 20804 ft 410 kts 142°
2026-04-22 17:04 51.76820 13.29486 19956 ft 406 kts 142°
2026-04-22 17:05 51.74394 13.32057 18286 ft 427 kts 143°
2026-04-22 17:05 51.71873 13.34745 16549 ft 438 kts 143°
2026-04-22 17:05 51.69352 13.37438 14979 ft 429 kts 143°
2026-04-22 17:05 51.66879 13.40076 13500 ft 420 kts 144°
2026-04-22 17:06 51.64490 13.42613 12460 ft 403 kts 144°
2026-04-22 17:06 51.62176 13.45056 11620 ft 383 kts 144°
2026-04-22 17:06 51.59996 13.47346 10857 ft 366 kts 144°
2026-04-22 17:06 51.57883 13.49555 10151 ft 351 kts 144°
2026-04-22 17:07 51.55882 13.51639 9429 ft 339 kts 144°
2026-04-22 17:07 51.53984 13.53606 9484 ft 307 kts 144°
2026-04-22 17:07 51.52308 13.55418 9672 ft 270 kts 130°
2026-04-22 17:07 51.51182 13.57670 10355 ft 262 kts 123°
2026-04-22 17:08 51.50055 13.60133 10560 ft 285 kts 123°
2026-04-22 17:08 51.48840 13.62799 10771 ft 305 kts 123°
2026-04-22 17:08 51.47546 13.65626 11036 ft 321 kts 123°
2026-04-22 17:08 51.46140 13.68717 10458 ft 360 kts 123°
2026-04-22 17:09 51.44595 13.72148 9849 ft 393 kts 123°
2026-04-22 17:09 51.43005 13.75751 8521 ft 392 kts 122°
2026-04-22 17:09 51.41993 13.78135 7526 ft 389 kts 122°
2026-04-22 17:09 51.40240 13.82123 6812 ft 283 kts 124°
2026-04-22 17:10 51.39477 13.83784 6403 ft 280 kts 124°
2026-04-22 17:10 51.38319 13.86282 5348 ft 276 kts 124°
2026-04-22 17:10 51.37199 13.88679 4205 ft 258 kts 124°
2026-04-22 17:10 51.36163 13.90885 3247 ft 239 kts 124°
2026-04-22 17:11 51.35209 13.92889 2715 ft 214 kts 124°
2026-04-22 17:11 51.34326 13.94710 2225 ft 206 kts 125°
2026-04-22 17:11 51.33489 13.96420 2150 ft 178 kts 126°
2026-04-22 17:11 51.32617 13.97755 2370 ft 174 kts 152°
2026-04-22 17:12 51.31461 13.97722 3132 ft 175 kts 201°
2026-04-22 17:12 51.30205 13.96907 2916 ft 211 kts 200°
2026-04-22 17:12 51.28837 13.96177 2618 ft 201 kts 197°
2026-04-22 17:12 51.27610 13.95255 2481 ft 190 kts 215°
2026-04-22 17:13 51.26549 13.94091 2392 ft 182 kts 216°
2026-04-22 17:13 51.25554 13.92988 2621 ft 172 kts 214°
2026-04-22 17:13 51.24561 13.91994 2855 ft 161 kts 214°
2026-04-22 17:13 51.23631 13.90960 2859 ft 168 kts 220°
2026-04-22 17:14 51.22686 13.89808 2884 ft 172 kts 220°
2026-04-22 17:14 51.21771 13.88588 2907 ft 175 kts 223°
2026-04-22 17:14 51.20898 13.87253 2762 ft 173 kts 226°
2026-04-22 17:14 51.20046 13.85898 2535 ft 170 kts 227°
2026-04-22 17:15 51.19470 13.85004 2318 ft 173 kts 225°
2026-04-22 17:15 51.18257 13.83280 1966 ft 181 kts 222°
2026-04-22 17:15 51.17309 13.82014 1611 ft 171 kts 221°
2026-04-22 17:15 51.16427 13.80868 1376 ft 160 kts 221°
2026-04-22 17:16 51.15594 13.79765 1118 ft 150 kts 224°
2026-04-22 17:16 51.14812 13.78696 917 ft 145 kts 224°
2026-04-22 17:16 51.14095 13.77699 714 ft 123 kts 225°
2026-04-22 17:16 51.13650 13.77027 729 ft 49 kts 221°
2026-04-22 17:17 51.13522 13.76895 728 ft 9 kts 212°
2026-04-22 17:17 51.13474 13.76848 731 ft 6 kts 212°
2026-04-22 17:17 51.13447 13.76819 731 ft 5 kts 221°
2026-04-22 17:17 51.13406 13.76767 732 ft 9 kts 212°
2026-04-22 17:18 51.13351 13.76775 733 ft 6 kts 150°
2026-04-22 17:18 51.13323 13.76822 734 ft 0 kts 133°
2026-04-22 17:21 51.13186 13.76939 736 ft 13 kts 223°
2026-04-22 17:22 51.12978 13.76648 743 ft 25 kts 222°
2026-04-22 17:22 51.12854 13.76478 746 ft 2 kts 219°
2026-04-22 17:22 51.12833 13.76452 747 ft 10 kts 221°
2026-04-22 17:23 51.12756 13.76408 748 ft 0 kts 138°
2026-04-22 17:23 51.12747 13.76466 749 ft 10 kts 101°
2026-04-22 17:23 51.12694 13.76580 750 ft 18 kts 132°
2026-04-22 17:24 51.12604 13.76712 753 ft 8 kts 186°
2026-04-22 17:24 51.12590 13.76699 755 ft 0 kts 213°
2026-04-22 17:24 51.12572 13.76676 750 ft 0 kts 222°
2026-04-22 17:24 51.12569 13.76673 750 ft 1 kts 220°
2026-04-22 17:25 51.12567 13.76670 754 ft 0 kts 220°